Time,TemperatureF,DewpointF,PressureIn,WindDirection,WindDirectionDegrees,WindSpeedMPH,WindSpeedGustMPH,Humidity,HourlyPrecipIn,Conditions,Clouds,dailyrainin,SoftwareType,DateUTC
2013-01-16 00:00:00,40.0,-99.9,30.70,ESE,110,2.0,4.0,-999,-99.99,,,-99.99,,2013-01-16 08:00:00,
2013-01-16 00:53:00,40.0,-99.9,30.70,ESE,110,2.0,4.0,-999,-99.99,,,-99.99,,2013-01-16 08:53:00,
2013-01-16 01:00:00,39.0,-99.9,30.70,NNE,20,2.0,4.0,-999,-99.99,,,-99.99,,2013-01-16 09:00:00,
2013-01-16 01:53:00,39.0,-99.9,30.70,NNE,20,2.0,4.0,-999,-99.99,,,-99.99,,2013-01-16 09:53:00,
2013-01-16 02:00:00,39.0,-99.9,30.71,North,10,4.0,7.0,-999,-99.99,,,-99.99,,2013-01-16 10:00:00,
2013-01-16 02:53:00,39.0,-99.9,30.71,North,10,4.0,7.0,-999,-99.99,,,-99.99,,2013-01-16 10:53:00,
2013-01-16 03:00:00,39.0,-99.9,30.70,SE,130,0.0,2.0,-999,-99.99,,,-99.99,,2013-01-16 11:00:00,
2013-01-16 03:53:00,39.0,-99.9,30.70,SE,130,0.0,2.0,-999,-99.99,,,-99.99,,2013-01-16 11:53:00,
2013-01-16 04:00:00,39.0,-99.9,30.69,SE,130,4.0,7.0,-999,-99.99,,,-99.99,,2013-01-16 12:00:00,
2013-01-16 04:53:00,39.0,-99.9,30.69,SE,130,4.0,7.0,-999,-99.99,,,-99.99,,2013-01-16 12:53:00,
2013-01-16 05:00:00,39.0,-99.9,30.66,East,100,7.0,9.0,-999,-99.99,,,-99.99,,2013-01-16 13:00:00,
2013-01-16 05:53:00,39.0,-99.9,30.66,East,100,7.0,9.0,-999,-99.99,,,-99.99,,2013-01-16 13:53:00,
2013-01-16 06:00:00,38.0,-99.9,30.65,East,100,7.0,9.0,-999,-99.99,,,-99.99,,2013-01-16 14:00:00,
2013-01-16 06:53:00,38.0,-99.9,30.65,East,100,7.0,9.0,-999,-99.99,,,-99.99,,2013-01-16 14:53:00,
2013-01-16 07:00:00,38.0,-99.9,30.65,East,90,9.0,11.0,-999,-99.99,,,-99.99,,2013-01-16 15:00:00,
2013-01-16 07:53:00,38.0,-99.9,30.65,East,90,9.0,11.0,-999,-99.99,,,-99.99,,2013-01-16 15:53:00,
2013-01-16 08:00:00,38.0,-99.9,30.66,East,90,9.0,11.0,-999,-99.99,,,-99.99,,2013-01-16 16:00:00,
2013-01-16 08:53:00,38.0,-99.9,30.66,East,90,9.0,11.0,-999,-99.99,,,-99.99,,2013-01-16 16:53:00,
2013-01-16 09:00:00,38.0,-99.9,30.66,East,90,9.0,11.0,-999,-99.99,,,-99.99,,2013-01-16 17:00:00,
2013-01-16 09:53:00,38.0,-99.9,30.66,East,90,9.0,11.0,-999,-99.99,,,-99.99,,2013-01-16 17:53:00,
2013-01-16 10:00:00,38.0,-99.9,30.66,East,80,4.0,7.0,-999,-99.99,,,-99.99,,2013-01-16 18:00:00,
2013-01-16 10:53:00,38.0,-99.9,30.66,East,80,4.0,7.0,-999,-99.99,,,-99.99,,2013-01-16 18:53:00,
2013-01-16 11:00:00,38.0,-99.9,30.65,East,80,2.0,7.0,-999,-99.99,,,-99.99,,2013-01-16 19:00:00,
2013-01-16 11:53:00,38.0,-99.9,30.65,East,80,2.0,7.0,-999,-99.99,,,-99.99,,2013-01-16 19:53:00,
2013-01-16 12:00:00,38.0,-99.9,30.63,East,100,2.0,4.0,-999,-99.99,,,-99.99,,2013-01-16 20:00:00,
2013-01-16 12:53:00,38.0,-99.9,30.63,East,100,2.0,4.0,-999,-99.99,,,-99.99,,2013-01-16 20:53:00,
2013-01-16 13:00:00,38.0,-99.9,30.62,ESE,110,2.0,4.0,-999,-99.99,,,-99.99,,2013-01-16 21:00:00,
2013-01-16 13:53:00,38.0,-99.9,30.62,ESE,110,2.0,4.0,-999,-99.99,,,-99.99,,2013-01-16 21:53:00,
2013-01-16 14:00:00,38.0,-99.9,30.61,East,100,4.0,7.0,-999,-99.99,,,-99.99,,2013-01-16 22:00:00,
2013-01-16 14:53:00,38.0,-99.9,30.61,East,100,4.0,7.0,-999,-99.99,,,-99.99,,2013-01-16 22:53:00,
2013-01-16 15:00:00,38.0,-99.9,30.60,ESE,110,7.0,9.0,-999,-99.99,,,-99.99,,2013-01-16 23:00:00,
2013-01-16 15:53:00,38.0,-99.9,30.60,ESE,110,7.0,9.0,-999,-99.99,,,-99.99,,2013-01-16 23:53:00,
2013-01-16 16:00:00,38.0,-99.9,30.61,East,100,4.0,7.0,-999,-99.99,,,-99.99,,2013-01-17 00:00:00,
2013-01-16 16:53:00,38.0,-99.9,30.61,East,100,4.0,7.0,-999,-99.99,,,-99.99,,2013-01-17 00:53:00,
2013-01-16 17:00:00,38.0,-99.9,30.61,East,80,4.0,4.0,-999,-99.99,,,-99.99,,2013-01-17 01:00:00,
2013-01-16 17:53:00,38.0,-99.9,30.61,East,80,4.0,4.0,-999,-99.99,,,-99.99,,2013-01-17 01:53:00,
2013-01-16 18:00:00,38.0,-99.9,30.59,NE,40,2.0,4.0,-999,-99.99,,,-99.99,,2013-01-17 02:00:00,
2013-01-16 19:00:00,38.0,-99.9,30.59,ENE,60,2.0,4.0,-999,-99.99,,,-99.99,,2013-01-17 03:00:00,
2013-01-16 19:53:00,38.0,-99.9,30.59,ENE,60,2.0,4.0,-999,-99.99,,,-99.99,,2013-01-17 03:53:00,
2013-01-16 20:00:00,38.0,-99.9,30.58,ENE,60,0.0,2.0,-999,-99.99,,,-99.99,,2013-01-17 04:00:00,
2013-01-16 20:53:00,38.0,-99.9,30.58,ENE,60,0.0,2.0,-999,-99.99,,,-99.99,,2013-01-17 04:53:00,
2013-01-16 21:00:00,38.0,-99.9,30.57,North,0,0.0,0.0,-999,-99.99,,,-99.99,,2013-01-17 05:00:00,
2013-01-16 21:53:00,38.0,-99.9,30.57,North,0,0.0,0.0,-999,-99.99,,,-99.99,,2013-01-17 05:53:00,
2013-01-16 22:00:00,38.0,-99.9,30.56,NW,310,0.0,2.0,-999,-99.99,,,-99.99,,2013-01-17 06:00:00,
2013-01-16 22:53:00,38.0,-99.9,30.56,NW,310,0.0,2.0,-999,-99.99,,,-99.99,,2013-01-17 06:53:00,
2013-01-16 23:00:00,38.0,-99.9,30.56,NNW,340,4.0,7.0,-999,-99.99,,,-99.99,,2013-01-17 07:00:00,
2013-01-16 23:53:00,38.0,-99.9,30.56,NNW,340,4.0,7.0,-999,-99.99,,,-99.99,,2013-01-17 07:53:00,